User: anonymous   Login
Location: Ferchesar
(52.6477°N, 12.4298°E)
Time: 09:31:53
(UTC+01:00)
Language:

A-11 Canister half - Orbit

View from above orbital plane
View from above orbital plane
View from above satellite
View from above satellite

Ground track
Ground track

The orbit data is extracted from the following two-line orbital elements,

1 00051U 60009C   22333.39377681 -.00000022  00000-0  60699-3 0  9996
2 00051  47.2124  98.6879 0105676 303.1584  55.9103 12.18285861773196
Epoch (UTC): 29 November 2022 09:27:02
Eccentricity: 0.0105676
inclination: 47.2124°
perigee height: 1516 km
apogee height: 1684 km
right ascension of ascending node: 98.6879°
argument of perigee: 303.1584°
revolutions per day: 12.18285861
mean anomaly at epoch: 55.9103°
orbit number at epoch: 77319

The dashed part of the orbit path shows where the satellite is in the earth's shadow,  

DLR